Tracking 33165 objects as of 8-Feb-2026
HD Live streaming from Space Station
objects crossing your sky now

STARLINK-35979

Track STARLINK-35979 now!
10-day predictions
STARLINK-35979 is classified as:


NORAD ID: 66809
Int'l Code: 2025-278U
Perigee: 488.9 km
Apogee: 491.4 km
Inclination: 43.0 °
Period: 94.3 minutes
Semi major axis: 6861 km
RCS: Unknown
Launch date: December 1, 2025
Source: United States (US)
Launch site: AIR FORCE EASTERN TEST RANGE (AFETR)
Your satellite tracking list
Your tracking list is empty




NASA's NSSDC Master Catalog

Two Line Element Set (TLE):
1 66809U 25278U   26037.09964010  .00036556  00000-0  13309-2 0  9993
2 66809  43.0033 293.1324 0001826 278.3080  81.7564 15.27589605 10373
Source of the keplerian elements: AFSPC